Torna al catalogo

DELTA 1 DEB

AttivoPO
NORAD 19105·DEBRIS·🇺🇸 United States

Lanciato Jan 22, 1975 da Vandenberg Space Force Base

Loading…

Prossimi Passaggi (prossime 24 ore)

TLE

AggiornatoSource: Space-Track

Epoca: Sep 13, 2026, 19:01 UTC

1 19105U 75004HN  26256.79304598  .00000354  00000-0  87175-4 0  9992
2 19105  98.7512 193.5143 0059274 256.9736 132.2877 14.57911957196006

Traccia DELTA 1 DEB in tempo reale con AllMySat

Download on the App Store